User: anonymous   Login
Location: Caltech
(34.1382°N, 118.1253°W)
Time: 20:19:19
(UTC-08:00)
Language:

Cosmos 1508 Rocket - Orbit

View from above orbital plane
View from above orbital plane
View from above satellite
View from above satellite

Ground track
Ground track

The orbit data is extracted from the following two-line orbital elements,

1 14484U 83111B   15028.18964584  .00077849  00000-0  72122-3 0  7884
2 14484 082.8322 108.5214 0149340 177.0898 263.5911 15.54202284607205
Epoch (UTC): 28 January 2015 04:33:05
Eccentricity: 0.0149340
inclination: 82.8322°
perigee height: 303 km
apogee height: 506 km
right ascension of ascending node: 108.5214°
argument of perigee: 177.0898°
revolutions per day: 15.54202284
mean anomaly at epoch: 263.5911°
orbit number at epoch: 60720

The dashed part of the orbit path shows where the satellite is in the earth's shadow,  

DLR